Location: B?ezina
(49.8085°N, 13.6013°E)
Time: 17:28:16
(UTC+00:00)

Cosmos 2333 Rocket - Pass Details

Date: 19 May 2025
Orbit: 840 x 862 km, 70.8° (Epoch: 17 June)

Event Time Altitude Azimuth Distance (km) Brightness Sun altitude
Rises 20:20:00 0° 332° (NNW) 3,445 7.3 -11.6°
Reaches altitude 10° 20:23:28 10° 352° (N) 2,502 5.6 -11.9°
Maximum altitude 20:27:04 17° 32° (NNE) 2,058 4.5 -12.2°
Drops below altitude 10° 20:30:39 10° 71° (ENE) 2,486 4.5 -12.6°
Enters shadow 20:33:55 - 91° (E) 3,370 5.0 -12.9°
